Location: ?????????
(53.2086°N, 54.0693°E)
Time: 11:49:04
(UTC+00:00)

CZ-4 R/B - Pass Details

Date: 08 December 2019
Orbit: 533 x 597 km, 97.7° (Epoch: 27 January)

Event Time Altitude Azimuth Distance (km) Brightness Sun altitude
Rises 13:54:23 0° 145° (SE) 2,714 4.7 -15.0°
Reaches altitude 10° 13:56:35 10° 139° (SE) 1,815 3.7 -15.3°
Maximum altitude 14:00:17 42° 68° (ENE) 789 1.6 -15.8°
Drops below altitude 10° 14:03:57 10° 358° (N) 1,807 3.8 -16.3°
Sets 14:06:08 0° 351° (N) 2,700 4.8 -16.7°
